Stations météo

réclame
Mon MeteoGroup
Grenoble/St.Geoirs, France (7486): Température de l'air & dewpoint: 27.05.2020 07:00:00 - 02.06.2020 07:00:00 (CEST)Grenoble/St.Geoirs, France (7486): Température de l'air 5cm: 27.05.2020 07:00:00 - 02.06.2020 07:00:00 (CEST)Grenoble/St.Geoirs, France (7486): Température de l'air -20cm & Température de l'air -100cm: 27.05.2020 07:00:00 - 02.06.2020 07:00:00 (CEST)Grenoble/St.Geoirs, France (7486): Vitesse du vent & gusts: 27.05.2020 07:00:00 - 02.06.2020 07:00:00 (CEST)Grenoble/St.Geoirs, France (7486): Direction du vent: 27.05.2020 07:00:00 - 02.06.2020 07:00:00 (CEST)Grenoble/St.Geoirs, France (7486): reduced air pressure: 27.05.2020 07:00:00 - 02.06.2020 07:00:00 (CEST)Grenoble/St.Geoirs, France (7486): visibility: 27.05.2020 07:00:00 - 02.06.2020 07:00:00 (CEST)Grenoble/St.Geoirs, France (7486): Ensoleillement: 27.05.2020 07:00:00 - 02.06.2020 07:00:00 (CEST)Grenoble/St.Geoirs, France (7486): Quantités de précipitations: 27.05.2020 07:00:00 - 02.06.2020 07:00:00 (CEST)
Date & Time tt [°C] td [°C] tt 5cm [°C] tt -20cm [°C] tt -100cm [°C] ff [km/h] ff [knt] fx [km/h] fx [knt] dd ppp [hPa] vv [km] sd [min] rr [mm]
02.06.2020 07:00:00 14,1 13,3 11,8 19,3 16,2 10 5 16 9 E 1017,2 16 25 0,0
02.06.2020 06:00:00 12,7 12,1 11,5 19,4 16,2 8 4 19 10 ESE 1017,2 21 0 0,0
02.06.2020 05:00:00 13,4 12,1 12,7 19,6 16,3 14 7 20 11 ENE 1016,8 36 0 0,0
02.06.2020 04:00:00 13,8 12,5 13,2 19,7 16,2 11 6 19 10 E 1016,8 33 0 0,0
02.06.2020 03:00:00 14,3 12,7 13,8 19,8 16,2 13 7 29 16 E 1017,6 40 0 0,0
02.06.2020 02:00:00 14,6 13,0 14,1 19,9 16,2 18 10 32 17 E 1017,9 40 0 0,0
02.06.2020 01:00:00 14,7 12,9 14,1 20,0 16,2 20 11 37 20 E 1018,0 45 0 0,0
02.06.2020 00:00:00 14,7 13,4 14,2 20,1 16,2 24 13 36 19 ENE 1018,5 35 0 0,0
01.06.2020 23:00:00 15,3 14,5 14,5 20,1 16,2 19 10 33 18 ENE 1018,2 20 0 0,0
01.06.2020 22:00:00 15,4 13,8 14,3 20,1 16,2 24 13 35 19 ENE 1018,0 16 0 0,8
01.06.2020 21:00:00 16,1 12,8 13,4 20,0 16,2 12 7 51 28 S 1017,3 13 0 2,8
01.06.2020 20:00:00 18,8 13,6 15,1 19,9 16,2 11 6 54 29 ESE 1016,1 2,2 1 3,6
01.06.2020 19:00:00 23,4 11,8 23,8 19,7 16,2 10 5 16 9 SW 1014,6 27 0 0,0
01.06.2020 18:00:00 24,3 11,3 25,9 19,5 16,2 8 4 19 10 S 1014,6 21 3 0,0
01.06.2020 17:00:00 24,5 11,4 26,7 19,3 16,2 10 5 27 14 SW 1014,5 28 34 0,0
01.06.2020 16:00:00 25,2 11,7 27,9 19,1 16,2 11 6 26 14 SSW 1014,7 23 53 0,0
01.06.2020 15:00:00 25,0 10,5 30,2 18,9 16,2 13 7 30 16 SW 1015,4 18 60 0,0
01.06.2020 14:00:00 24,5 12,4 26,7 18,7 16,2 18 10 31 17 SW 1015,4 19 51 0,0
01.06.2020 13:00:00 23,8 12,4 28,8 18,7 16,1 8 5 18 10 W 1015,6 21 60 0,0
01.06.2020 12:00:00 22,6 10,4 27,1 18,8 16,2 4 2 19 10 NNE 1015,9 21 60 0,0
01.06.2020 11:00:00 21,6 10,4 24,2 18,8 16,2 11 6 26 14 E 1016,0 16 60 0,0
01.06.2020 10:00:00 20,4 10,5 22,0 18,9 16,1 16 9 27 15 ENE 1016,2 9 60 0,0
01.06.2020 09:00:00 18,5 9,8 20,0 19,0 16,1 19 10 29 16 E 1016,3 13 60 0,0
01.06.2020 08:00:00 16,1 11,0 16,8 19,1 16,1 11 6 20 11 E 1016,2 17 60 0,0
01.06.2020 07:00:00 12,8 11,0 9,0 19,2 16,1 7 4 16 8 ESE 1016,9 20 31 0,0
01.06.2020 06:00:00 10,1 9,2 8,8 19,4 16,1 10 5 15 8 ENE 1017,2 12 0 0,0
01.06.2020 05:00:00 11,5 10,4 9,7 19,5 16,1 12 6 14 8 E 1016,9 13 0 0,0
01.06.2020 04:00:00 12,1 10,5 9,2 19,6 16,1 13 7 15 8 E 1016,8 13 0 0,0
01.06.2020 03:00:00 13,2 10,9 9,0 19,7 16,1 3 2 8 4 N 1016,4 13 0 0,0
01.06.2020 02:00:00 14,5 11,5 9,9 19,8 16,1 2 1 10 5 SSW 1016,2 16 0 0,0
01.06.2020 01:00:00 15,1 11,7 10,8 19,9 16,1 3 1 11 6 E 1016,0 16 0 0,0
01.06.2020 00:00:00 16,8 11,9 11,0 19,9 16,1 8 4 19 10 W 1015,5 16 0 0,0
31.05.2020 23:00:00 14,8 11,4 10,3 19,9 16,1 7 4 11 6 ENE 1015,4 16 0 0,0
31.05.2020 22:00:00 16,9 11,4 10,5 19,9 16,1 6 3 9 5 ESE 1014,5 16 0 0,0
31.05.2020 21:00:00 20,2 11,4 16,7 19,8 16,1 8 5 14 8 ENE 1013,4 17 28 0,0
31.05.2020 20:00:00 23,3 10,7 24,8 19,6 16,1 8 4 17 9 N 1012,7 19 56 0,0
31.05.2020 19:00:00 23,9 10,2 25,3 19,4 16,1 9 5 16 9 NNE 1012,3 29 51 0,0
31.05.2020 18:00:00 25,1 10,2 29,5 19,2 16,1 8 4 18 10 SW 1012,4 17 60 0,0
31.05.2020 17:00:00 25,0 10,1 29,3 19,0 16,1 5 3 21 12 E 1012,7 22 57 0,0
31.05.2020 16:00:00 25,0 10,5 24,4 18,8 16,1 4 2 21 12 NNE 1013,0 16 38 0,0
31.05.2020 15:00:00 23,2 9,9 24,6 18,6 16,1 5 3 20 11 SW 1013,6 22 37 0,0
31.05.2020 14:00:00 23,4 10,4 29,6 18,4 16,0 4 2 17 9 NE 1013,7 16 60 0,0
31.05.2020 13:00:00 22,4 10,5 28,7 18,3 16,0 5 3 14 7 NE 1014,0 16 60 0,0
31.05.2020 12:00:00 21,2 10,1 25,6 18,3 16,0 5 3 21 11 NE 1014,5 15 60 0,0
31.05.2020 11:00:00 19,9 9,5 24,3 18,4 16,0 7 4 19 10 E 1014,9 16 60 0,0
31.05.2020 10:00:00 18,4 8,6 23,2 18,5 16,0 9 5 16 9 ENE 1015,4 13 60 0,0
31.05.2020 09:00:00 16,9 9,6 18,3 18,7 16,0 6 3 13 7 ENE 1015,9 16 60 0,0
31.05.2020 08:00:00 14,4 9,8 13,5 18,8 16,0 8 4 13 7 E 1016,2 17 60 0,0
31.05.2020 07:00:00 10,2 9,0 7,2 18,9 16,0 9 5 15 8 E 1016,7 8 27 0,0
31.05.2020 06:00:00 8,2 7,0 6,3 19,1 16,0 11 6 13 7 E 1016,7 15 0 0,0
31.05.2020 05:00:00 8,4 6,9 6,2 19,2 16,0 6 3 9 5 ENE 1016,5 15 0 0,0
31.05.2020 04:00:00 9,8 8,2 5,9 19,4 16,0 3 2 8 4 NW 1016,5 17 0 0,0
31.05.2020 03:00:00 9,4 7,3 6,9 19,5 16,0 3 2 9 5 ENE 1016,6 17 0 0,0
31.05.2020 02:00:00 10,6 8,2 7,8 19,6 16,0 7 4 14 7 NE 1016,6 16 0 0,0
31.05.2020 01:00:00 11,4 7,7 5,6 19,7 16,0 5 3 10 5 ESE 1016,4 17 0 0,0
31.05.2020 00:00:00 12,5 8,4 7,5 19,7 16,0 7 4 12 6 E 1015,9 19 0 0,0
30.05.2020 23:00:00 14,3 8,0 10,1 19,7 16,0 5 3 16 9 SE 1015,4 18 0 0,0
30.05.2020 22:00:00 15,6 7,6 9,8 19,7 16,0 4 2 15 8 E 1014,8 18 0 0,0
30.05.2020 21:00:00 18,6 8,0 16,6 19,6 16,0 10 5 20 11 N 1013,9 19 36 0,0
30.05.2020 20:00:00 21,9 8,4 23,8 19,5 16,0 9 5 21 11 N 1013,4 20 60 0,0
30.05.2020 19:00:00 22,8 7,3 22,5 19,3 16,0 11 6 20 11 N 1013,2 22 55 0,0
30.05.2020 18:00:00 21,3 10,5 21,5 19,1 16,0 7 4 22 12 N 1013,7 18 30 0,0
30.05.2020 17:00:00 23,2 8,5 24,5 18,9 15,9 13 7 21 11 NNW 1013,7 28 45 0,0
30.05.2020 16:00:00 23,5 7,1 30,4 18,7 15,9 10 5 24 13 WNW 1014,0 19 60 0,0
30.05.2020 15:00:00 23,1 6,8 24,4 18,5 16,0 8 4 20 11 WNW 1014,4 31 48 0,0
30.05.2020 14:00:00 21,9 7,7 22,3 18,4 15,9 9 5 19 11 W 1015,0 21 50 0,0
30.05.2020 13:00:00 20,7 8,3 23,8 18,3 15,9 5 3 19 10 ENE 1015,8 17 50 0,0
30.05.2020 12:00:00 20,4 8,4 25,7 18,3 15,9 6 4 22 12 W 1016,2 20 60 0,0
30.05.2020 11:00:00 19,4 9,0 25,2 18,3 15,9 8 4 20 11 W 1016,7 17 60 0,0
30.05.2020 10:00:00 18,1 9,7 24,4 18,4 15,9 6 3 16 9 W 1017,2 18 60 0,0
30.05.2020 09:00:00 17,5 10,1 19,8 18,6 15,9 5 3 12 6 ENE 1017,4 13 60 0,0
30.05.2020 08:00:00 14,7 10,9 13,4 18,7 15,9 6 3 13 7 ENE 1017,9 13 60 0,0
30.05.2020 07:00:00 10,6 9,4 6,9 18,9 15,9 10 5 14 8 E 1018,6 16 25 0,0
30.05.2020 06:00:00 9,0 7,8 6,8 19,0 15,9 6 3 9 5 NE 1019,0 13 0 0,0
30.05.2020 05:00:00 11,9 9,1 6,1 19,1 15,9 4 2 12 6 N 1018,4 18 0 0,0
30.05.2020 04:00:00 11,8 9,0 7,2 19,3 15,9 4 2 13 7 NNW 1018,7 18 0 0,0
30.05.2020 03:00:00 13,1 10,1 7,6 19,4 15,9 8 4 14 7 NW 1018,7 18 0 0,0
30.05.2020 02:00:00 12,5 10,2 9,0 19,5 15,9 4 2 9 5 N 1018,7 18 0 0,0
30.05.2020 01:00:00 13,5 10,3 7,9 19,6 15,9 5 3 16 9 NW 1018,6 18 0 0,0
30.05.2020 00:00:00 12,7 7,4 6,4 19,7 15,9 4 2 18 10 SSW 1018,6 23 0 0,0
29.05.2020 23:00:00 13,7 8,5 7,7 19,7 15,9 5 3 8 4 E 1018,0 23 0 0,0
29.05.2020 22:00:00 17,3 6,8 10,0 19,7 15,8 5 3 17 9 SW 1017,2 24 0 0,0
29.05.2020 21:00:00 18,6 8,0 16,7 19,6 15,8 11 6 18 10 NNW 1016,3 26 33 0,0
29.05.2020 20:00:00 21,7 6,8 22,9 19,4 15,8 12 6 24 13 NNW 1015,9 45 60 0,0
29.05.2020 19:00:00 23,1 6,4 26,7 19,2 15,8 9 5 31 17 NNW 1015,3 43 60 0,0
29.05.2020 18:00:00 23,3 7,4 27,7 19,0 15,8 17 9 29 16 NW 1015,1 26 60 0,0
29.05.2020 17:00:00 23,2 9,2 28,6 18,8 15,8 12 7 26 14 NNW 1015,3 26 60 0,0
29.05.2020 16:00:00 22,9 7,4 28,7 18,6 15,8 12 6 31 17 N 1015,7 18 60 0,0
29.05.2020 15:00:00 22,3 8,4 28,1 18,4 15,8 14 7 33 18 N 1016,3 17 60 0,0
29.05.2020 14:00:00 21,5 8,4 26,8 18,2 15,8 16 8 36 20 N 1016,7 16 60 0,0
29.05.2020 13:00:00 21,3 8,5 25,7 18,2 15,8 18 10 29 16 NNW 1017,0 18 60 0,0
29.05.2020 12:00:00 20,2 7,2 24,7 18,2 15,8 17 9 29 16 N 1017,8 18 60 0,0
29.05.2020 11:00:00 19,4 9,0 22,6 18,2 15,7 13 7 27 15 N 1018,0 14 60 0,0
29.05.2020 10:00:00 18,2 8,2 22,2 18,3 15,7 17 9 30 16 NE 1018,3 11 60 0,0
29.05.2020 09:00:00 16,7 9,6 20,4 18,5 15,8 8 4 14 7 NNW 1018,7 15 60 0,0
29.05.2020 08:00:00 13,7 10,5 14,8 18,6 15,7 4 2 9 5 WSW 1019,6 20 60 0,0
29.05.2020 07:00:00 10,8 9,4 6,8 18,8 15,7 0 0 11 6 N 1020,1 11 30 0,0
29.05.2020 06:00:00 9,4 8,3 4,6 18,9 15,7 4 2 8 4 NNW 1020,5 13 0 0,0
29.05.2020 05:00:00 9,5 8,1 5,5 19,1 15,7 5 3 10 6 SSW 1020,5 15 0 0,0
29.05.2020 04:00:00 9,7 8,0 4,4 19,2 15,7 4 2 10 5 SE 1020,7 17 0 0,0
29.05.2020 03:00:00 10,2 8,6 5,0 19,3 15,7 3 2 10 5 SE 1021,0 16 0 0,0
29.05.2020 02:00:00 10,8 8,6 6,7 19,4 15,7 5 3 11 6 ENE 1021,1 18 0 0,0
29.05.2020 01:00:00 12,1 8,9 9,2 19,5 15,7 6 3 12 7 ESE 1021,3 18 0 0,0
29.05.2020 00:00:00 15,1 9,2 9,3 19,6 15,7 6 3 18 10 ENE 1021,1 20 0 0,0
28.05.2020 23:00:00 17,6 8,7 12,6 19,6 15,7 6 4 13 7 ESE 1020,8 22 0 0,0
28.05.2020 22:00:00 18,1 8,6 11,8 19,6 15,7 4 2 27 14 N 1021,0 22 0 0,0
28.05.2020 21:00:00 20,4 8,7 19,3 19,4 15,7 15 8 30 16 NNW 1020,5 25 31 0,0
28.05.2020 20:00:00 22,5 9,6 23,5 19,3 15,7 13 7 32 17 NNW 1020,4 12 60 0,0
28.05.2020 19:00:00 23,5 10,9 25,8 19,1 15,7 16 8 32 18 NNW 1020,3 12 60 0,0
28.05.2020 18:00:00 24,0 10,3 27,7 18,9 15,6 19 10 31 17 NNW 1020,9 11 60 0,0
28.05.2020 17:00:00 24,3 10,6 28,8 18,6 15,6 16 9 31 17 N 1021,3 12 60 0,0
28.05.2020 16:00:00 23,9 10,2 29,1 18,4 15,6 14 8 35 19 N 1022,1 14 60 0,0
28.05.2020 15:00:00 23,7 9,7 28,8 18,2 15,6 11 6 27 15 N 1022,8 20 60 0,0
28.05.2020 14:00:00 23,3 8,2 28,8 18,0 15,6 10 5 27 14 N 1023,3 30 60 0,0
28.05.2020 13:00:00 22,6 6,4 27,5 18,0 15,7 13 7 34 18 NNW 1024,0 20 60 0,0
28.05.2020 12:00:00 21,9 8,7 27,6 17,9 15,6 7 4 19 10 NNE 1024,7 20 60 0,0
28.05.2020 11:00:00 20,6 10,1 26,7 18,0 15,6 3 2 13 7 W 1025,4 19 60 0,0
28.05.2020 10:00:00 18,8 10,4 24,3 18,1 15,6 4 2 11 6 SSW 1026,1 14 60 0,0
28.05.2020 09:00:00 17,8 10,9 20,5 18,2 15,6 4 2 10 6 ESE 1026,7 15 60 0,0
28.05.2020 08:00:00 13,9 10,1 13,9 18,4 15,7 0 0 11 6 N 1027,6 19 60 0,0
28.05.2020 07:00:00 9,4 8,6 5,7 18,5 15,6 6 3 13 7 E 1028,5 24 29 0,0
28.05.2020 06:00:00 7,7 6,9 5,5 18,7 15,6 8 4 12 7 E 1028,8 14 0 0,0
28.05.2020 05:00:00 7,5 6,4 4,4 18,8 15,6 8 5 10 5 E 1028,9 13 0 0,0
28.05.2020 04:00:00 9,3 8,4 5,9 18,9 15,6 7 4 10 5 E 1028,4 16 0 0,0
28.05.2020 03:00:00 9,9 8,3 5,2 19,1 15,6 5 3 10 5 ESE 1028,5 16 0 0,0
28.05.2020 02:00:00 10,8 8,0 6,3 19,1 15,6 5 3 11 6 E 1028,8 19 0 0,0
28.05.2020 01:00:00 13,0 9,1 8,9 19,2 15,6 5 3 16 9 ENE 1028,6 20 0 0,0
28.05.2020 00:00:00 15,1 9,5 11,3 19,3 15,6 7 4 14 8 SSE 1028,4 22 0 0,0
27.05.2020 23:00:00 15,4 9,5 10,5 19,3 15,6 3 2 12 6 E 1028,5 21 0 0,0
27.05.2020 22:00:00 16,3 9,7 10,7 19,2 15,5 5 3 13 7 ESE 1028,0 22 0 0,0
27.05.2020 21:00:00 19,3 9,2 15,6 19,1 15,5 6 4 12 6 N 1027,3 24 20 0,0
27.05.2020 20:00:00 21,8 8,7 23,6 18,9 15,6 10 5 19 10 NNW 1026,8 23 60 0,0
27.05.2020 19:00:00 23,1 9,1 26,5 18,7 15,5 11 6 21 12 NNW 1026,7 19 60 0,0
27.05.2020 18:00:00 23,3 8,9 25,6 18,5 15,5 12 7 24 13 NNW 1027,0 20 52 0,0
27.05.2020 17:00:00 23,5 8,7 26,1 18,2 15,5 4 2 22 12 NNW 1027,1 20 53 0,0
27.05.2020 16:00:00 24,0 11,0 29,4 17,9 15,5 11 6 26 14 SSW 1027,2 32 60 0,0
27.05.2020 15:00:00 22,8 8,9 27,3 17,8 15,5 10 5 24 13 NW 1027,8 38 60 0,0
27.05.2020 14:00:00 22,4 10,2 28,2 17,6 15,5 5 3 18 10 W 1028,1 39 60 0,0
27.05.2020 13:00:00 21,2 9,4 26,4 17,5 15,5 5 3 19 10 NW 1028,7 20 60 0,0
27.05.2020 12:00:00 20,4 9,9 25,8 17,5 15,5 5 3 15 8 WSW 1028,9 17 60 0,0
27.05.2020 11:00:00 18,8 8,7 24,4 17,6 15,5 4 2 12 6 SSE 1029,2 18 60 0,0
27.05.2020 10:00:00 16,7 9,1 22,5 17,7 15,5 4 2 11 6 W 1029,4 20 60 0,0
27.05.2020 09:00:00 14,5 8,7 20,7 17,9 15,5 2 1 8 4 SSE 1029,5 19 60 0,0
27.05.2020 08:00:00 11,5 8,4 12,7 18,0 15,5 3 2 9 5 WSW 1029,8 20 60 0,0
27.05.2020 07:00:00 8,9 8,0 2,9 18,1 15,5 4 2 9 5 E 1029,9 14 29 0,0

tt = Température de l'air
td = dewpoint
tt 5cm = Température de l'air 5cm
tt -20cm = Température de l'air -20cm
tt -100cm = Température de l'air -100cm
ff = Vitesse du vent
fx = gusts
dd = Direction du vent
ppp = reduced air pressure
vv = visibility
sd = Ensoleillement
rr = Quantités de précipitations

stations d'obs. à proximité